Weather History for KCXO - January, 2014

Change the Weather History Date:

Sunday, January 26, 2014

  Actual Average Record
Temperature  
Mean Temperature 54 °F -  
Max Temperature 70 °F 60 °F 78 °F (2005)
Min Temperature 39 °F 40 °F 27 °F (2011)
Degree Days  
Heating Degree Days 10    
Growing Degree Days 4 (Base 50)    
Moisture  
Dew Point 44 °F    
Average Humidity 70    
Maximum Humidity 96    
Minimum Humidity 32    
Precipitation  
Precipitation 0.00 in - - ()
Sea Level Pressure  
Sea Level Pressure 29.88 in    
Wind  
Wind Speed 5 mph (South)    
Max Wind Speed 16 mph    
Max Gust Speed 23 mph    
Visibility 10 miles    
Events      
Averages and records for this station are not official NWS values.
T = Trace of Precipitation, MM = Missing Value Source: NWS Daily Summary

Daily Weather History Graph

Daily Weather History Graph

Search for Another Location

Airport or City:

Trip Planner

Search our weather history database for the weather conditions in past years. The results will help you decide how hot, cold, wet, or windy it might be!

Date:

Astronomy

Jan. 26, 2014 Rise Set
Actual Time 7:15 AM CST 5:53 PM CST
Civil Twilight 6:50 AM CST 6:18 PM CST
Nautical Twilight 6:21 AM CST 6:47 PM CST
Astronomical Twilight 5:52 AM CST 7:16 PM CST
Moon 2:52 AM CST (1/26) 1:45 PM CST (1/26)
Length of Visible Light 11h 28m
Length of Day
10h 37m
Waning Crescent, 23% of the Moon is Illuminated
Jan 26
Waning Crescent
Jan 30
New
Feb 6
First Quarter
Feb 14
Full
Feb 22
Last Quarter

Hourly Weather History & Observations

Time (CST) Temp. Windchill Dew Point Humidity Pressure Visibility Wind Dir Wind Speed Gust Speed Precip Events Conditions
12:53 AM 39.0 °F - 37.9 °F 96% 30.03 in 10.0 mi Calm Calm - N/A   Clear
1:53 AM 39.0 °F - 37.9 °F 96% 30.02 in 10.0 mi Calm Calm - N/A   Clear
2:53 AM 41.0 °F - 39.0 °F 93% 29.99 in 10.0 mi Calm Calm - N/A   Clear
3:53 AM 41.0 °F - 39.0 °F 93% 29.99 in 10.0 mi Calm Calm - N/A   Clear
4:53 AM 42.1 °F - 39.9 °F 92% 29.98 in 10.0 mi Calm Calm - N/A   Clear
5:53 AM 45.0 °F - 41.0 °F 86% 29.98 in 10.0 mi Calm Calm - N/A   Mostly Cloudy
6:53 AM 43.0 °F - 41.0 °F 93% 29.98 in 10.0 mi Calm Calm - N/A   Mostly Cloudy
7:53 AM 43.0 °F 40.3 °F 39.9 °F 89% 29.97 in 10.0 mi SSE 4.6 mph - N/A   Mostly Cloudy
8:53 AM 50.0 °F - 39.9 °F 68% 29.97 in 10.0 mi South 8.1 mph - N/A   Mostly Cloudy
9:53 AM 55.0 °F - 39.9 °F 57% 29.97 in 10.0 mi SSW 6.9 mph - N/A   Mostly Cloudy
10:53 AM 62.1 °F - 39.0 °F 43% 29.96 in 10.0 mi SSW 13.8 mph 21.9 mph N/A   Clear
11:53 AM 64.9 °F - 37.0 °F 36% 29.91 in 10.0 mi SSW 11.5 mph - N/A   Clear
12:53 PM 66.9 °F - 36.0 °F 32% 29.86 in 10.0 mi South 16.1 mph 21.9 mph N/A   Clear
1:53 PM 69.1 °F - 39.9 °F 35% 29.82 in 10.0 mi South 16.1 mph 23.0 mph N/A   Clear
2:53 PM 69.1 °F - 42.1 °F 38% 29.79 in 10.0 mi South 12.7 mph - N/A   Clear
3:53 PM 70.0 °F - 44.1 °F 39% 29.76 in 10.0 mi South 11.5 mph - N/A   Clear
4:53 PM 68.0 °F - 46.0 °F 45% 29.75 in 10.0 mi South 16.1 mph 23.0 mph N/A   Clear
5:53 PM 64.0 °F - 45.0 °F 50% 29.75 in 10.0 mi South 6.9 mph - N/A   Clear
6:53 PM 62.1 °F - 46.0 °F 56% 29.77 in 10.0 mi SSW 9.2 mph - N/A   Clear
7:53 PM 60.1 °F - 48.0 °F 64% 29.78 in 10.0 mi South 8.1 mph - N/A   Clear
8:53 PM 60.1 °F - 54.0 °F 80% 29.79 in 10.0 mi SSW 10.4 mph - N/A   Clear
9:53 PM 59.0 °F - 55.9 °F 90% 29.79 in 10.0 mi South 6.9 mph - N/A   Partly Cloudy
10:39 PM 59.0 °F - 57.2 °F 94% 29.80 in 10.0 mi SSW 9.2 mph - N/A   Mostly Cloudy
10:53 PM 59.0 °F - 57.9 °F 96% 29.80 in 10.0 mi South 6.9 mph - N/A   Overcast
11:53 PM 60.1 °F - 57.9 °F 93% 29.80 in 10.0 mi SSW 8.1 mph - N/A   Overcast